Weather History for Ypsilanti, MI

Change the Weather History Date:

Thursday, November 1, 2012

  Actual Average Record
Temperature  
Mean Temperature 46 °F -  
Max Temperature 52 °F 58 °F 74 °F (1974)
Min Temperature 41 °F 42 °F 24 °F (1949)
Degree Days  
Heating Degree Days 18    
Moisture  
Dew Point 32 °F    
Average Humidity 61    
Maximum Humidity 76    
Minimum Humidity 43    
Precipitation  
Precipitation 0.00 in - - ()
Sea Level Pressure  
Sea Level Pressure 29.72 in    
Wind  
Wind Speed 13 mph (WNW)    
Max Wind Speed 20 mph    
Max Gust Speed 28 mph    
Visibility 10 miles    
Events      
Averages and records for this station are not official NWS values.
T = Trace of Precipitation, MM = Missing Value Source: NWS Daily Summary

Daily Weather History Graph

Daily Weather History Graph

Search for Another Location

Airport:

Trip Planner

Search our weather history database for the weather conditions in past years. The results will help you decide how hot, cold, wet, or windy it might be!

Date:

Astronomy

Nov. 01, 2012 Rise Set
Actual Time 8:07 AM EDT 6:26 PM EDT
Civil Twilight 7:38 AM EDT 6:56 PM EDT
Nautical Twilight 7:05 AM EDT 7:29 PM EDT
Astronomical Twilight 6:32 AM EDT 8:01 PM EDT
Moon 8:20 PM EDT (11/1) 10:41 AM EDT (11/1)
Length of Visible Light 11h 17m
Length of Day
10h 19m
Waning Gibbous, 93% of the Moon is Illuminated
Nov 1
Waning Gibbous
Nov 6
Last Quarter
Nov 13
New
Nov 20
First Quarter
Nov 28
Full

Hourly Weather History & Observations

Time (EDT) Temp. Windchill Dew Point Humidity Pressure Visibility Wind Dir Wind Speed Gust Speed Precip Events Conditions
12:53 AM 43.0 °F 36.0 °F 36.0 °F 76% 29.67 in 10.0 mi NW 13.8 mph - N/A   Overcast
1:53 AM 43.0 °F 36.0 °F 36.0 °F 76% 29.67 in 10.0 mi NW 13.8 mph - N/A   Overcast
2:53 AM 43.0 °F 36.4 °F 36.0 °F 76% 29.68 in 10.0 mi WNW 12.7 mph 19.6 mph N/A   Overcast
3:53 AM 44.1 °F 37.7 °F 36.0 °F 73% 29.67 in 10.0 mi WNW 12.7 mph - N/A   Overcast
4:53 AM 44.1 °F 38.6 °F 35.1 °F 71% 29.68 in 10.0 mi WNW 10.4 mph - N/A   Overcast
6:53 AM 43.0 °F 37.2 °F 34.0 °F 71% 29.70 in 10.0 mi WNW 10.4 mph - N/A   Overcast
7:53 AM 43.0 °F 36.8 °F 33.1 °F 68% 29.71 in 10.0 mi WNW 11.5 mph - N/A   Overcast
9:53 AM 43.0 °F 34.5 °F 32.0 °F 65% 29.73 in 10.0 mi WNW 19.6 mph 27.6 mph N/A   Overcast
10:53 AM 44.1 °F 36.8 °F 32.0 °F 63% 29.74 in 10.0 mi WNW 16.1 mph - N/A   Overcast
11:53 AM 44.1 °F 36.2 °F 30.9 °F 60% 29.75 in 10.0 mi WNW 18.4 mph 25.3 mph N/A   Overcast
1:53 PM 46.9 °F - 30.0 °F 52% 29.72 in 10.0 mi NW 16.1 mph - N/A   Partly Cloudy
2:53 PM 51.1 °F - 30.9 °F 46% 29.70 in 10.0 mi West 16.1 mph - N/A   Partly Cloudy
5:53 PM 50.0 °F - 28.0 °F 43% 29.72 in 10.0 mi NW 13.8 mph 19.6 mph N/A   Overcast
6:53 PM 48.0 °F - 30.0 °F 50% 29.73 in 10.0 mi WNW 9.2 mph - N/A   Overcast
7:53 PM 46.9 °F - 30.9 °F 54% 29.75 in 10.0 mi WNW 8.1 mph - N/A   Overcast
8:53 PM 46.9 °F - 28.9 °F 50% 29.76 in 10.0 mi WNW 17.3 mph - N/A   Overcast
9:53 PM 45.0 °F 38.5 °F 28.0 °F 52% 29.78 in 10.0 mi WNW 13.8 mph - N/A   Overcast
10:53 PM 42.1 °F 35.7 °F 28.0 °F 58% 29.79 in 10.0 mi WNW 11.5 mph - N/A   Mostly Cloudy
11:53 PM 41.0 °F 35.8 °F 28.0 °F 60% 29.80 in 10.0 mi NW 8.1 mph - N/A   Overcast